EW3533 Weather Reports


Display with metric or nautical units.
time (UTC)temp
F
wind
direction
speed
MPH
gust
MPH
rain 1hr
in
rain 24hr
in
rain mn
in
humidity
%
barometer
mb
20260905221612 73 38 6.0 11.0 0.00 0.00 0.00 62 1015.3
20260905220053 74 19 8.0 12.0 0.00 0.00 0.00 62 1015.1
20260905214558 75 56 5.0 12.0 0.00 0.00 0.00 65 1015.0
20260905213048 75 61 5.0 12.0 0.00 0.00 0.00 66 1015.0
20260905211550 76 355 5.0 15.0 0.00 0.00 0.00 66 1014.9
20260905210057 76 5 7.0 15.0 0.00 0.00 0.00 66 1015.0
20260905204545 77 360 10.0 16.0 0.00 0.00 0.00 65 1015.0
20260905203045 77 332 7.0 16.0 0.00 0.00 0.00 67 1014.9
20260905201545 77 11 6.0 15.0 0.00 0.00 0.00 67 1014.9
20260905200049 77 344 9.0 13.0 0.00 0.00 0.00 67 1014.9
20260905194546 77 22 3.0 13.0 0.00 0.00 0.00 70 1014.9
20260905193044 76 24 7.0 14.0 0.00 0.00 0.00 72 1014.8
20260905191543 76 337 6.0 15.0 0.00 0.00 0.00 73 1014.9
20260905190047 76 355 5.0 13.0 0.00 0.00 0.00 73 1015.1
20260905184541 77 342 8.0 13.0 0.00 0.00 0.00 70 1015.2
20260905183041 76 59 4.0 12.0 0.00 0.00 0.00 74 1015.2
20260905181540 76 355 6.0 12.0 0.00 0.00 0.00 74 1015.2
20260905180056 77 65 4.0 9.0 0.00 0.00 0.00 72 1015.1
20260905174538 77 57 4.0 10.0 0.00 0.00 0.00 63 1015.2
20260905173046 77 18 3.0 8.0 0.00 0.00 0.00 64 1015.1
20260905171549 77 24 2.0 9.0 0.00 0.00 0.00 66 1015.2
20260905170032 77 15 3.0 6.0 0.00 0.00 0.00 65 1015.2
20260905164531 75 127 3.0 8.0 0.00 0.00 0.00 69 1015.3
20260905163031 76 40 2.0 8.0 0.00 0.00 0.00 69 1015.4
20260905161530 76 59 4.0 8.0 0.00 0.00 0.00 68 1015.3
20260905160045 75 71 3.0 8.0 0.00 0.00 0.00 69 1015.3
20260905154526 74 59 3.0 9.0 0.00 0.00 0.00 71 1015.3
20260905153027 75 55 3.0 9.0 0.00 0.00 0.00 70 1015.3
20260905151522 74 81 4.0 7.0 0.00 0.00 0.00 72 1015.1
20260905150019 73 86 2.0 7.0 0.00 0.00 0.00 74 1015.2
20260905144527 73 117 2.0 7.0 0.00 0.00 0.00 75 1015.2
20260905143015 73 116 2.0 7.0 0.00 0.00 0.00 79 1015.1
20260905141514 72 70 3.0 9.0 0.00 0.00 0.00 79 1014.9
20260905140018 71 63 1.0 8.0 0.00 0.00 0.00 82 1014.9
20260905134507 70 59 1.0 5.0 0.00 0.01 0.00 83 1015.1
20260905133008 70 49 1.0 9.0 0.00 0.01 0.00 85 1015.1
20260905131601 69 91 2.0 6.0 0.00 0.01 0.00 88 1015.2
20260905130057 68 41 2.0 6.0 0.00 0.01 0.00 91 1015.1
20260905124558 67 55 2.0 4.0 0.00 0.02 0.00 93 1015.1
20260905123051 66 74 1.0 3.0 0.00 0.02 0.00 93 1015.0
20260905121549 65 74 0.0 2.0 0.00 0.02 0.00 93 1014.9
20260905120058 64 74 0.0 2.0 0.00 0.02 0.00 93 1014.6
20260905114558 64 74 0.0 0.0 0.00 0.02 0.00 93 1014.5
20260905113053 64 74 0.0 1.0 0.00 0.02 0.00 92 1014.2
20260905111627 64 74 0.0 2.0 0.00 0.02 0.00 93 1014.0
20260905110042 65 74 0.0 2.0 0.00 0.02 0.00 93 1014.1
20260905104542 65 74 0.0 2.0 0.00 0.02 0.00 93 1014.1
20260905103042 65 74 0.0 2.0 0.00 0.02 0.00 93 1014.0
20260905101543 65 74 0.0 1.0 0.00 0.02 0.00 93 1014.4
20260905100041 65 74 0.0 1.0 0.00 0.02 0.00 93 1014.3
20260905094539 65 74 0.0 2.0 0.00 0.02 0.00 93 1014.3
20260905093041 65 74 0.0 2.0 0.00 0.02 0.00 93 1014.1
20260905091536 65 74 0.0 2.0 0.00 0.02 0.00 93 1014.1
20260905090035 65 74 0.0 2.0 0.00 0.02 0.00 93 1014.2
20260905084534 65 74 0.0 2.0 0.00 0.02 0.00 93 1014.0
20260905083034 65 74 0.0 1.0 0.00 0.02 0.00 93 1014.0
20260905081533 65 74 0.0 1.0 0.00 0.02 0.00 93 1014.1
20260905080034 65 74 0.0 2.0 0.00 0.02 0.00 93 1013.7
20260905074531 65 74 1.0 3.0 0.00 0.02 0.00 93 1013.6
20260905073036 65 75 0.0 2.0 0.00 0.02 0.00 93 1013.4
20260905071530 65 75 0.0 2.0 0.00 0.02 0.00 93 1013.3
20260905070045 65 75 1.0 2.0 0.00 0.02 0.00 93 1013.2
20260905064539 65 75 0.0 2.0 0.00 0.02 0.00 93 1013.4
20260905063025 64 75 0.0 3.0 0.00 0.02 0.00 93 1013.7
20260905061524 64 88 0.0 2.0 0.00 0.02 0.00 93 1013.9
20260905060025 64 88 0.0 2.0 0.00 0.02 0.00 93 1014.1
20260905054533 64 88 0.0 2.0 0.00 0.02 0.00 93 1014.2
20260905053020 64 88 0.0 0.0 0.00 0.02 0.00 92 1014.0
20260905051533 64 88 0.0 0.0 0.00 0.02 0.00 92 1014.0
20260905050019 64 88 0.0 2.0 0.00 0.02 0.00 92 1013.9
20260905044518 64 88 0.0 2.0 0.00 0.02 0.00 92 1013.8
20260905043016 64 88 0.0 2.0 0.00 0.02 0.00 92 1014.1
20260905041515 65 88 0.0 0.0 0.00 0.02 0.00 92 1013.9
20260905040018 65 88 0.0 0.0 0.00 0.02 0.00 91 1014.1
20260905034523 65 88 0.0 0.0 0.00 0.02 0.02 91 1014.2
20260905033016 65 88 0.0 2.0 0.00 0.02 0.02 92 1014.2
20260905031508 65 88 1.0 3.0 0.00 0.02 0.02 91 1014.0
20260905030006 66 88 0.0 2.0 0.00 0.02 0.02 91 1014.1
20260905024507 66 88 0.0 2.0 0.00 0.02 0.02 91 1014.3
20260905023004 67 88 0.0 2.0 0.00 0.02 0.02 90 1014.4
20260905021502 68 88 0.0 2.0 0.00 0.02 0.02 90 1014.5
20260905020106 68 88 0.0 2.0 0.00 0.02 0.02 89 1014.4
20260905014601 69 88 1.0 4.0 0.00 0.02 0.02 90 1014.4
20260905013100 70 50 1.0 5.0 0.00 0.02 0.02 90 1014.5
20260905011601 70 53 2.0 5.0 0.00 0.02 0.02 90 1014.4
20260905010059 71 69 1.0 3.0 0.00 0.02 0.02 90 1014.2
20260905004558 71 69 1.0 3.0 0.00 0.02 0.02 89 1014.0
20260905003059 71 69 1.0 3.0 0.00 0.02 0.02 89 1013.9
20260905001606 72 69 0.0 3.0 0.00 0.02 0.02 89 1013.7
20260905000100 72 69 1.0 4.0 0.00 0.02 0.02 88 1013.5
20260904234605 73 80 0.0 3.0 0.00 0.02 0.02 88 1013.5
20260904233056 73 87 1.0 3.0 0.00 0.02 0.02 87 1013.4
20260904231554 74 37 2.0 5.0 0.00 0.02 0.02 86 1013.2
20260904230054 74 84 1.0 8.0 0.00 0.02 0.02 86 1013.0
20260904224552 74 56 3.0 10.0 0.00 0.02 0.02 86 1012.8
20260904223056 75 39 3.0 6.0 0.00 0.02 0.02 86 1012.8